Location: Berlise
(49.6641°N, 4.1077°E)
Time: 01:49:53
(UTC+00:00)

PSLV R/B - Pass Details

Date: 27 January 2021
Orbit: 567 x 598 km, 98.2° (Epoch: 28 February)

Event Time Altitude Azimuth Distance (km) Brightness Sun altitude
Rises 05:07:49 0° 162° (SSE) 2,794 7.7 -21.7°
Reaches altitude 10° 05:09:57 10° 162° (SSE) 1,904 6.8 -21.3°
Maximum altitude 05:14:05 84° 76° (ENE) 600 3.9 -20.7°
Enters shadow 05:17:39 14° 347° (NNW) 1,674 6.1 -20.1°
